When you browse on this site, cookies collect data to enhance your experience and personalize the content and advertising you see.
Visit our Privacy Policy to learn more. By continuing to use the site, you agree to this use of cookies and data.
  • In Hungary
  • List of Countries
  • For 7 days
  • Water Temperature
  • Satellite Maps
  • Weather Map
  • News
  • Weather Widgets
  • user-avatar
    Login

    Hourly Weather Caceres

    Today, 15 December, Saturday

    Time Temperature Precipitation Wind Pressure Humidity
    00:00 +7°C° 0 mm 1 mps 734 mmHg 91%
    01:00 +7°C° 0 mm 1 mps 734 mmHg 92%
    02:00 +7°C° 0 mm 1 mps 734 mmHg 93%
    03:00 +7°C° 0 mm 1 mps 734 mmHg 93%
    04:00 +7°C° 0 mm 1 mps 734 mmHg 94%
    05:00 +7°C° 0 mm 1 mps 734 mmHg 94%
    06:00 +7°C° 0 mm 1 mps 734 mmHg 94%
    07:00 +7°C° 0 mm 1 mps 734 mmHg 93%
    08:00 +8°C° 0 mm 1 mps 735 mmHg 91%
    09:00 +8°C° 0 mm 1 mps 735 mmHg 90%
    10:00 +10°C° 0 mm 1 mps 735 mmHg 84%
    11:00 +11°C° 0 mm 1 mps 735 mmHg 79%
    12:00 +13°C° 0 mm 2 mps 735 mmHg 74%
    13:00 +13°C° 0 mm 2 mps 735 mmHg 74%
    14:00 +14°C° 0 mm 2 mps 734 mmHg 74%
    15:00 +14°C° 0 mm 2 mps 734 mmHg 75%
    16:00 +13°C° 0 mm 1 mps 734 mmHg 79%
    17:00 +12°C° 0 mm 1 mps 733 mmHg 83%
    18:00 +11°C° 0 mm 1 mps 733 mmHg 88%
    19:00 +11°C° 0 mm 1 mps 733 mmHg 89%
    20:00 +10°C° 0 mm 2 mps 733 mmHg 90%
    21:00 +9°C° 0 mm 2 mps 733 mmHg 92%
    22:00 +9°C° 0.1 mm 2 mps 733 mmHg 91%
    23:00 +10°C° 0.1 mm 2 mps 732 mmHg 90%

    Tomorrow, 16 December, Sunday

    Time Temperature Precipitation Wind Pressure Humidity
    00:00 +10°C° 0.1 mm 3 mps 732 mmHg 90%
    01:00 +10°C° 0.3 mm 3 mps 732 mmHg 91%
    02:00 +10°C° 0.3 mm 3 mps 731 mmHg 92%
    03:00 +10°C° 0.3 mm 3 mps 731 mmHg 92%
    04:00 +10°C° 0.8 mm 4 mps 731 mmHg 92%
    05:00 +11°C° 0.8 mm 4 mps 730 mmHg 91%
    06:00 +10°C° 0.8 mm 5 mps 730 mmHg 90%
    07:00 +10°C° 2.7 mm 5 mps 730 mmHg 91%
    08:00 +11°C° 2.7 mm 4 mps 730 mmHg 92%
    09:00 +12°C° 2.7 mm 4 mps 731 mmHg 93%
    10:00 +12°C° 0.6 mm 4 mps 731 mmHg 88%
    11:00 +13°C° 0.6 mm 5 mps 731 mmHg 83%
    12:00 +13°C° 0.6 mm 5 mps 732 mmHg 78%
    13:00 +13°C° 0 mm 5 mps 732 mmHg 75%
    14:00 +13°C° 0 mm 5 mps 732 mmHg 71%
    15:00 +13°C° 0 mm 4 mps 732 mmHg 68%
    16:00 +12°C° 0 mm 4 mps 732 mmHg 74%
    17:00 +11°C° 0 mm 3 mps 733 mmHg 81%
    18:00 +9°C° 0 mm 2 mps 733 mmHg 88%
    19:00 +9°C° 0 mm 2 mps 734 mmHg 89%
    20:00 +8°C° 0 mm 2 mps 734 mmHg 91%
    21:00 +7°C° 0 mm 2 mps 735 mmHg 93%
    22:00 +7°C° 0 mm 2 mps 735 mmHg 93%
    23:00 +7°C° 0 mm 1 mps 735 mmHg 93%

    Day after tomorrow, 17 December, Monday

    Time Temperature Precipitation Wind Pressure Humidity
    00:00 +7°C° 0 mm 1 mps 735 mmHg 93%
    01:00 +7°C° 0 mm 1 mps 735 mmHg 93%
    02:00 +6°C° 0 mm 1 mps 735 mmHg 93%
    03:00 +6°C° 0 mm 1 mps 735 mmHg 93%
    04:00 +5°C° 0 mm 0 mps 735 mmHg 92%
    05:00 +4°C° 0 mm 0 mps 735 mmHg 92%
    06:00 +4°C° 0 mm 0 mps 735 mmHg 92%
    07:00 +5°C° 0 mm 0 mps 735 mmHg 90%
    08:00 +5°C° 0 mm 0 mps 736 mmHg 87%
    09:00 +6°C° 0 mm 0 mps 736 mmHg 85%
    10:00 +8°C° 0 mm 1 mps 736 mmHg 78%
    11:00 +10°C° 0 mm 1 mps 736 mmHg 71%
    12:00 +12°C° 0 mm 1 mps 736 mmHg 63%
    13:00 +12°C° 0 mm 1 mps 735 mmHg 61%
    14:00 +12°C° 0 mm 1 mps 734 mmHg 59%
    15:00 +13°C° 0 mm 1 mps 734 mmHg 57%
    16:00 +11°C° 0 mm 1 mps 734 mmHg 64%
    17:00 +9°C° 0 mm 1 mps 734 mmHg 71%
    18:00 +8°C° 0 mm 1 mps 734 mmHg 78%
    19:00 +7°C° 0 mm 1 mps 734 mmHg 80%
    20:00 +7°C° 0 mm 1 mps 734 mmHg 81%
    21:00 +6°C° 0 mm 1 mps 734 mmHg 83%
    22:00 +6°C° 0 mm 1 mps 733 mmHg 83%
    23:00 +5°C° 0 mm 2 mps 733 mmHg 84%

    18 December, Tuesday

    Time Temperature Precipitation Wind Pressure Humidity
    00:00 +5°C° 0 mm 2 mps 733 mmHg 84%
    01:00 +4°C° 0 mm 2 mps 732 mmHg 83%
    02:00 +4°C° 0 mm 2 mps 732 mmHg 83%
    03:00 +4°C° 0 mm 2 mps 731 mmHg 82%
    04:00 +4°C° 0 mm 2 mps 731 mmHg 82%
    05:00 +4°C° 0 mm 2 mps 731 mmHg 82%
    06:00 +4°C° 0 mm 2 mps 731 mmHg 81%
    07:00 +5°C° 0 mm 2 mps 731 mmHg 80%
    08:00 +5°C° 0 mm 2 mps 731 mmHg 78%
    09:00 +5°C° 0 mm 3 mps 730 mmHg 76%
    10:00 +8°C° 0 mm 3 mps 730 mmHg 72%
    11:00 +10°C° 0 mm 4 mps 730 mmHg 68%
    12:00 +12°C° 0 mm 4 mps 729 mmHg 63%
    13:00 +12°C° 0.2 mm 4 mps 728 mmHg 66%
    14:00 +13°C° 0.2 mm 4 mps 728 mmHg 69%
    15:00 +13°C° 0.2 mm 4 mps 727 mmHg 72%
    16:00 +13°C° 1.6 mm 4 mps 728 mmHg 78%
    17:00 +12°C° 1.6 mm 4 mps 728 mmHg 85%
    18:00 +11°C° 1.6 mm 3 mps 728 mmHg 91%
    19:00 +11°C° 0.4 mm 3 mps 729 mmHg 92%
    20:00 +10°C° 0.4 mm 3 mps 729 mmHg 93%
    21:00 +10°C° 0.4 mm 3 mps 730 mmHg 94%
    22:00 +9°C° 0 mm 3 mps 730 mmHg 94%
    23:00 +8°C° 0 mm 2 mps 730 mmHg 94%

    19 December, Wednesday

    Time Temperature Precipitation Wind Pressure Humidity
    00:00 +6°C° 0 mm 2 mps 731 mmHg 94%
    01:00 +6°C° 0 mm 2 mps 731 mmHg 94%
    02:00 +5°C° 0 mm 2 mps 731 mmHg 94%
    03:00 +6°C° 0 mm 1 mps 732 mmHg 93%
    04:00 +5°C° 0 mm 1 mps 732 mmHg 93%
    05:00 +5°C° 0 mm 1 mps 732 mmHg 93%
    06:00 +5°C° 0 mm 1 mps 733 mmHg 93%
    07:00 +5°C° 0 mm 1 mps 733 mmHg 91%
    08:00 +6°C° 0 mm 1 mps 734 mmHg 89%
    09:00 +6°C° 0 mm 1 mps 734 mmHg 87%
    10:00 +8°C° 0 mm 1 mps 734 mmHg 82%
    11:00 +9°C° 0 mm 2 mps 734 mmHg 76%
    12:00 +12°C° 0 mm 2 mps 735 mmHg 71%
    13:00 +12°C° 0 mm 2 mps 734 mmHg 69%
    14:00 +12°C° 0 mm 2 mps 734 mmHg 68%
    15:00 +12°C° 0 mm 3 mps 734 mmHg 66%
    16:00 +10°C° 0 mm 2 mps 734 mmHg 73%
    17:00 +10°C° 0 mm 1 mps 734 mmHg 80%
    18:00 +8°C° 0 mm 1 mps 734 mmHg 87%
    19:00 +8°C° 0 mm 1 mps 734 mmHg 88%
    20:00 +7°C° 0 mm 1 mps 735 mmHg 90%
    21:00 +7°C° 0 mm 1 mps 735 mmHg 91%
    22:00 +7°C° 0 mm 1 mps 735 mmHg 91%
    23:00 +7°C° 0 mm 1 mps 735 mmHg 92%

    20 December, Thursday

    Time Temperature Precipitation Wind Pressure Humidity
    00:00 +6°C° 0 mm 1 mps 735 mmHg 92%
    01:00 +6°C° 0 mm 1 mps 735 mmHg 92%
    02:00 +5°C° 0 mm 0 mps 735 mmHg 92%
    03:00 +5°C° 0 mm 0 mps 735 mmHg 91%
    04:00 +5°C° 0 mm 0 mps 735 mmHg 91%
    05:00 +5°C° 0 mm 0 mps 735 mmHg 91%
    06:00 +4°C° 0 mm 0 mps 735 mmHg 91%
    07:00 +5°C° 0 mm 0 mps 736 mmHg 89%
    08:00 +6°C° 0 mm 0 mps 736 mmHg 87%
    09:00 +6°C° 0 mm 0 mps 737 mmHg 85%
    10:00 +8°C° 0 mm 0 mps 737 mmHg 77%
    11:00 +10°C° 0 mm 0 mps 737 mmHg 70%
    12:00 +12°C° 0 mm 0 mps 737 mmHg 62%
    13:00 +13°C° 0 mm 1 mps 736 mmHg 61%
    14:00 +13°C° 0 mm 1 mps 736 mmHg 60%
    15:00 +14°C° 0 mm 1 mps 736 mmHg 58%
    16:00 +12°C° 0 mm 1 mps 736 mmHg 66%
    17:00 +10°C° 0 mm 1 mps 736 mmHg 73%
    18:00 +9°C° 0 mm 1 mps 736 mmHg 81%
    19:00 +7°C° 0 mm 0 mps 737 mmHg 82%
    20:00 +7°C° 0 mm 0 mps 737 mmHg 83%
    21:00 +7°C° 0 mm 0 mps 737 mmHg 83%
    22:00 +6°C° 0 mm 0 mps 737 mmHg 84%
    23:00 +6°C° 0 mm 0 mps 737 mmHg 84%
    Show more